Theta_e
314 313 313 312 311 311 310 310 310 310 310 311 312 313 314 315 315 315 316 318 317 317 316 317 317 317 319 321 320 321 320 322 324 323 322 318 318 317 317 317 317 317 317 316 316
311 311 311 311 311 310 310 310 310 310 310 309 310 311 313 314 315 315 317 317 317 316 316 318 319 318 320 321 320 321 324 324 321 320 320 320 318 318 316 315 316 316 315 315 314
310 310 310 311 311 312 312 312 312 311 310 310 309 310 311 313 315 318 318 317 317 316 315 318 319 319 320 322 322 321 322 321 320 320 319 318 318 318 317 315 317 317 316 316 315
310 311 311 311 312 312 313 313 313 313 312 311 310 309 310 312 320 319 317 317 318 316 315 317 318 319 320 322 322 320 321 321 321 319 317 317 318 318 318 316 318 318 318 317 316
311 311 311 311 312 312 312 313 313 313 313 312 311 310 309 315 316 316 317 316 317 316 315 316 318 320 322 322 321 319 319 320 320 318 317 317 317 316 317 317 317 317 317 316 316
312 312 312 312 311 312 312 312 312 312 313 312 311 310 310 315 314 315 315 315 316 316 315 314 317 319 319 319 319 319 318 318 318 318 318 316 316 317 317 318 317 317 317 316 315
312 312 312 312 312 312 313 313 313 313 313 313 311 310 311 314 314 314 313 315 315 314 314 315 315 315 319 320 318 317 315 316 317 318 317 317 315 315 317 317 317 317 317 317 316
309 311 312 313 313 313 314 314 314 314 314 314 312 310 312 314 314 314 313 314 315 314 314 314 314 315 317 317 317 316 317 317 319 317 316 315 315 317 318 317 317 317 316 316 316
309 308 307 308 310 313 314 315 315 314 313 313 311 311 315 315 315 314 313 314 315 314 313 313 314 317 317 316 316 316 317 318 319 318 315 314 316 315 317 317 317 316 316 316 315
311 310 309 308 307 307 308 309 312 312 311 310 311 315 314 315 314 314 314 315 314 313 313 313 315 316 315 315 316 318 318 317 316 317 315 314 314 314 316 316 316 316 316 316 316
313 312 312 311 310 309 308 307 309 314 311 314 316 315 316 315 314 314 315 315 313 313 315 315 314 315 315 316 317 317 316 316 317 316 315 315 315 315 316 316 315 316 316 316 316
316 315 314 313 312 311 309 308 311 309 308 309 311 312 315 314 313 313 313 313 313 314 314 315 315 315 315 315 315 315 314 315 315 316 314 314 315 314 313 314 315 315 315 315 315
317 317 317 318 316 312 310 309 307 306 311 309 309 310 310 310 312 312 313 313 313 314 315 315 316 315 315 315 316 315 314 314 315 315 312 312 313 313 313 314 314 315 315 314 314
320 320 320 321 316 311 312 309 307 307 311 312 312 312 311 311 309 311 313 313 313 314 314 314 315 315 314 314 314 314 315 315 315 315 315 314 316 313 314 312 311 313 314 314 313
321 321 321 322 320 316 312 307 309 308 315 315 309 310 312 310 308 308 310 310 311 312 313 314 313 313 314 314 314 315 312 313 314 314 314 315 313 313 313 312 311 311 315 315 314
322 322 321 320 320 319 313 308 310 311 313 313 311 311 312 311 309 307 307 307 308 310 310 311 310 311 313 310 311 310 312 312 312 311 313 312 313 313 313 313 312 311 315 315 314
321 323 320 319 318 319 316 309 312 311 314 315 313 312 312 313 312 308 308 307 309 310 311 312 311 310 310 312 309 310 313 313 315 314 316 312 312 315 315 312 311 311 314 314 314
323 323 321 321 319 318 312 313 314 318 315 313 312 313 313 313 313 311 311 310 308 310 312 313 313 311 308 311 314 310 313 315 314 313 314 309 313 314 313 313 315 315 315 314 314
323 321 320 321 319 317 309 312 319 322 320 319 317 313 313 312 313 313 311 312 312 310 312 312 313 308 308 311 312 312 312 314 314 307 313 314 313 313 313 312 311 310 312 312 312
319 319 319 319 319 314 308 312 315 320 320 317 317 314 314 314 312 312 312 313 313 311 311 312 313 311 306 306 307 309 309 312 313 311 310 312 312 315 315 314 311 310 309 312 312
318 317 318 318 316 310 310 310 315 317 318 319 321 317 314 312 313 313 312 312 313 313 311 312 312 311 306 306 309 306 308 309 310 314 312 313 314 313 313 313 311 310 312 313 313
314 316 316 316 311 309 311 312 314 315 317 315 312 313 313 313 313 314 314 314 310 312 312 311 313 313 311 310 307 309 309 310 311 311 309 312 314 312 311 309 308 309 312 313 313
312 315 313 315 316 313 311 313 313 315 315 316 318 315 316 316 316 313 313 311 312 311 310 310 311 314 311 311 307 307 308 309 310 310 312 313 312 312 312 311 310 309 311 312 312
310 313 308 309 312 313 315 313 313 313 314 314 315 315 315 315 313 315 314 313 313 311 312 312 312 313 314 313 311 310 308 307 309 311 311 311 311 311 311 311 311 312 312 312 312
304 309 310 310 309 311 312 312 314 314 314 315 315 315 316 316 315 315 313 312 311 311 310 312 312 310 311 312 311 311 311 310 310 309 309 310 310 310 311 311 310 311 310 310 310
302 306 307 309 310 311 310 311 312 313 313 314 315 314 314 315 315 316 313 314 315 311 312 311 314 310 311 310 310 310 310 310 310 310 311 310 310 309 309 310 310 310 310 310 310
299 301 301 302 306 308 309 309 310 310 310 311 313 313 314 314 313 313 314 314 313 314 311 309 310 312 314 311 311 312 311 312 312 312 311 311 311 311 311 310 310 311 311 311 311
Wind_Speed
8 9 9 9 10 10 11 11 11 10 10 10 10 9 9 10 9 10 9 7 5 4 3 2 2 1 3 5 7 3 2 5 8 0 1 6 4 7 7 8 9 11 11 9 10
10 10 10 10 10 10 10 11 11 12 11 11 10 10 9 10 13 17 11 9 8 6 4 2 2 4 5 4 4 4 3 5 3 6 4 2 10 9 5 10 13 16 18 20 18
13 13 12 12 11 11 11 11 11 12 12 12 13 12 10 10 12 9 10 15 11 8 6 5 6 7 10 8 7 5 5 4 4 7 7 7 10 11 9 8 20 21 26 27 26
15 15 15 14 14 14 14 14 14 13 14 14 13 14 11 7 5 4 8 14 14 10 7 4 3 4 6 7 12 4 16 19 6 5 4 4 6 9 20 26 6 9 16 24 30
17 17 17 17 17 16 16 16 16 16 16 16 15 14 12 7 13 17 14 12 15 13 9 5 8 12 7 8 2 9 12 17 14 12 13 14 18 10 22 24 27 25 26 22 26
19 19 18 18 18 18 18 18 18 17 17 16 16 15 12 10 14 15 14 15 17 15 12 10 7 8 9 11 8 8 13 19 16 18 13 8 10 13 18 16 25 30 29 31 32
22 21 21 20 20 20 19 19 20 20 19 18 18 15 14 21 20 19 16 17 18 17 14 14 14 8 7 8 7 7 8 10 17 19 7 5 10 14 37 21 19 21 27 35 36
24 25 25 24 23 23 22 21 22 22 21 20 18 13 12 17 20 20 18 17 17 18 18 18 12 11 6 6 6 4 5 5 5 12 9 12 12 10 17 24 31 30 26 28 33
23 24 25 27 27 29 27 24 25 25 23 21 15 9 9 13 15 17 16 15 15 16 15 13 9 6 4 3 6 9 6 9 10 13 7 9 9 10 9 7 16 22 26 30 34
23 24 24 24 25 28 29 27 26 26 23 13 12 5 18 12 11 11 13 16 10 8 6 8 7 4 4 6 7 7 6 10 13 7 7 8 17 13 27 22 28 34 35 36 37
20 22 24 24 24 25 25 21 12 7 11 12 7 9 6 10 8 10 11 14 11 7 7 11 5 11 15 16 16 15 16 16 22 11 10 15 19 16 19 27 24 31 36 33 35
21 20 20 21 20 19 18 6 8 8 13 21 25 25 25 24 11 17 15 14 11 9 9 4 13 21 9 12 7 9 13 20 18 11 7 9 14 13 10 20 34 31 36 34 23
19 18 18 18 18 14 13 13 11 12 8 11 27 21 25 28 17 24 25 16 9 8 13 19 10 14 7 7 9 12 10 15 15 9 6 6 7 12 9 25 30 35 42 31 25
18 19 20 18 9 13 11 9 6 5 4 7 8 9 15 12 6 14 21 11 7 13 13 16 20 20 15 18 10 21 9 9 11 6 6 4 15 8 6 12 11 27 38 25 21
20 17 20 20 17 11 11 8 3 1 7 1 3 2 6 6 1 1 14 8 9 5 5 8 4 6 9 11 9 6 2 2 4 6 6 5 9 5 9 9 11 13 34 30 20
20 20 21 20 18 14 13 4 3 3 9 3 5 4 3 5 1 2 2 5 2 3 7 14 4 3 4 3 2 3 1 3 3 2 9 11 12 3 6 8 6 9 30 29 18
26 23 25 22 13 13 11 4 3 8 3 6 6 6 5 6 7 8 6 6 6 4 8 6 16 2 4 4 2 4 3 3 4 1 15 10 10 16 5 8 11 13 25 22 23
17 26 33 29 27 18 5 2 10 8 18 2 4 7 7 9 8 8 5 5 13 6 3 3 9 14 8 12 8 9 9 6 7 10 21 2 9 9 11 12 20 31 33 16 20
24 21 27 31 30 25 13 4 10 6 8 12 15 6 7 7 6 8 9 9 8 19 11 7 12 3 6 3 9 6 6 4 1 2 4 12 14 11 11 11 10 13 15 15 16
21 19 27 22 21 28 4 11 12 9 10 7 14 8 15 13 10 9 9 5 6 13 13 5 11 8 4 3 3 4 1 2 2 2 7 18 13 16 13 18 9 6 8 13 15
15 8 12 13 22 14 5 11 14 21 24 12 15 17 19 16 15 11 10 10 5 5 15 3 5 8 6 8 11 2 4 5 1 5 7 10 15 4 6 5 8 8 7 7 10
12 4 10 15 9 7 9 8 18 22 23 6 2 9 14 10 15 25 25 19 27 2 9 8 2 5 15 8 2 6 11 12 10 16 4 12 23 5 5 9 10 8 10 16 20
7 10 11 24 8 8 5 19 22 19 17 6 11 12 15 16 9 12 15 16 14 6 5 10 3 2 8 14 2 5 6 11 11 11 19 18 22 10 21 18 13 8 8 15 20
6 4 7 22 17 9 14 11 17 24 22 27 19 17 14 17 18 10 12 13 26 10 16 3 3 10 14 16 15 12 11 11 13 11 20 21 26 31 30 27 25 31 31 29 31
9 7 9 4 8 16 14 6 18 20 27 23 8 26 23 16 20 22 21 27 19 21 4 6 11 19 24 25 25 23 24 25 23 19 21 25 29 28 31 24 24 36 27 30 31
6 4 5 7 18 14 16 18 28 27 23 21 27 23 20 24 26 28 20 19 20 3 12 10 10 13 24 31 32 29 29 25 32 30 31 34 30 34 31 39 37 41 43 33 34
11 12 5 11 11 8 13 15 7 13 21 31 28 26 25 26 30 39 40 36 22 10 7 7 7 8 19 23 27 24 33 38 34 31 30 29 38 38 34 32 33 46 40 40 35
Wind_Direction
324 330 334 339 347 353 356 0 4 5 1 354 348 338 319 293 293 287 272 260 261 252 249 252 262 231 194 228 231 243 270 265 272 317 311 128 216 204 223 237 215 214 227 248 241
313 317 321 327 333 339 344 347 350 351 351 348 341 334 325 306 292 275 264 251 244 248 250 254 322 226 230 224 227 230 238 264 33 335 292 223 205 241 204 233 239 234 240 244 245
307 311 315 318 322 326 330 334 336 338 339 341 341 337 327 319 305 275 252 238 234 237 242 236 227 225 240 242 213 228 232 292 297 293 292 276 271 236 249 251 239 228 232 243 244
300 303 306 309 314 317 320 322 324 327 329 332 336 335 328 314 276 311 293 229 228 232 236 234 205 219 226 223 239 270 244 254 285 262 253 239 256 258 236 233 247 249 233 238 233
292 296 300 304 306 308 311 315 316 318 321 323 324 327 321 289 258 277 280 242 229 231 234 234 254 250 258 298 254 237 263 277 270 254 244 261 263 252 255 250 253 257 259 245 242
288 291 294 297 301 304 307 310 312 312 313 314 315 313 301 249 271 272 272 243 233 233 239 233 240 276 293 266 270 346 304 290 282 245 227 228 264 250 257 259 251 245 246 247 244
286 287 290 292 295 297 300 303 305 307 307 308 308 302 276 273 276 277 273 253 240 237 236 247 247 247 316 270 314 290 304 277 254 236 236 224 279 231 256 245 244 244 244 245 249
285 286 287 289 290 291 294 298 299 300 300 301 299 288 263 271 265 259 261 248 240 238 240 250 251 248 237 306 276 233 240 281 268 206 162 145 260 234 258 242 242 241 246 250 246
294 294 293 291 290 289 289 293 295 297 296 290 283 255 258 262 254 254 246 239 238 240 242 245 225 230 177 215 284 226 250 236 273 179 134 179 256 264 239 246 265 250 248 253 256
300 302 301 299 299 294 290 294 294 294 287 271 239 241 242 240 253 255 237 228 222 220 226 208 204 223 197 198 230 255 247 283 278 200 198 207 250 262 269 269 261 267 266 260 260
303 307 307 306 307 306 307 310 310 283 234 220 224 209 229 240 250 249 229 211 207 197 201 186 182 218 215 216 234 254 264 261 271 265 188 230 246 252 250 270 266 264 267 264 264
316 317 315 318 318 317 308 321 279 286 298 258 253 253 251 257 247 243 219 185 183 213 209 209 219 235 258 261 259 276 276 271 275 286 179 259 260 263 255 259 261 266 268 269 261
313 317 321 328 330 321 315 289 277 280 259 259 255 239 241 242 238 240 211 198 193 210 212 227 205 218 225 241 261 238 243 262 265 282 217 271 259 250 243 253 262 265 267 261 252
305 314 319 331 331 336 326 328 296 282 270 223 206 215 219 208 260 213 198 206 229 222 216 253 239 245 249 256 228 268 239 263 271 270 243 88 290 224 240 266 238 256 270 262 253
295 304 309 320 321 323 309 306 273 297 280 308 152 192 186 192 121 202 202 206 243 204 181 219 176 197 232 235 187 258 72 296 286 269 312 218 276 244 187 242 237 247 261 270 263
279 287 289 298 307 318 327 282 177 246 245 214 148 180 169 206 214 111 165 195 303 286 243 256 124 225 217 88 118 128 305 247 249 231 256 203 217 206 186 211 219 233 254 260 254
268 272 272 275 267 291 321 158 245 228 192 184 207 180 215 181 192 191 173 187 192 173 220 225 233 151 148 154 180 174 158 295 301 269 264 185 237 249 224 182 196 219 237 256 220
274 269 266 265 263 265 199 339 228 213 217 101 187 174 209 180 222 192 214 235 223 235 294 246 270 176 182 212 176 180 176 174 225 258 278 130 252 254 222 230 230 231 239 223 200
269 273 277 257 251 244 135 193 241 284 274 282 294 259 218 216 232 170 217 238 213 188 201 196 251 45 160 197 162 182 196 211 254 43 313 269 279 279 231 232 233 213 176 183 206
277 272 274 277 256 218 126 222 246 271 322 301 263 277 271 234 199 188 208 207 229 190 217 247 261 182 154 74 278 189 262 119 231 228 240 277 287 271 270 260 225 159 204 218 232
278 234 249 257 217 178 204 224 249 248 243 258 274 284 287 290 291 262 243 249 278 242 197 266 231 253 122 200 186 167 233 226 237 187 222 264 271 281 144 155 167 205 213 228 232
260 244 232 205 162 195 224 212 236 255 252 248 200 233 258 294 293 285 289 285 358 189 170 206 203 258 241 225 261 232 215 203 222 240 236 236 259 195 327 132 130 151 183 269 261
239 248 234 202 227 222 258 235 237 262 248 228 229 212 234 254 257 253 269 274 303 34 54 354 302 268 280 296 359 229 240 250 253 252 247 244 253 245 268 268 256 216 273 260 253
260 248 186 211 222 233 236 237 244 242 253 252 258 260 248 252 241 248 245 262 256 219 190 67 283 272 259 261 288 284 258 241 240 254 258 256 270 277 271 273 282 282 281 279 269
225 237 217 201 247 245 240 202 242 249 238 243 224 229 236 246 252 246 243 256 260 265 238 170 230 224 239 245 260 262 260 273 273 257 252 268 268 265 270 277 269 273 278 272 284
249 278 329 277 263 251 238 252 252 258 249 242 235 241 235 236 237 252 225 236 243 276 206 189 230 216 236 241 251 260 265 260 252 256 255 253 259 262 259 267 271 273 272 283 273
252 260 279 262 264 268 251 265 264 271 272 278 280 275 269 257 250 246 252 262 267 233 212 199 202 208 244 237 244 250 244 250 256 251 244 251 250 254 261 255 257 266 283 279 275